sat.trackr.live / text

‹ back to catalog

STARLINK-36143

NORAD 67056 · 2025-294AC

PAYLOAD ACTIVE UNKNOWN

§ Identity

Operator
Country
US
Launch date
2025-12-11
Launch site
AFETR
Launch vehicle
Mass (kg)
RCS (m²)

Purposes: comms

External: N2YO · Heavens-Above · Gunter

§ Orbital elements

Epoch: 2026-09-20T08:44:21.110208Z

Period
94.27 min
Inclination
43.0020°
Eccentricity
0.0001293
Mean motion
15.27582180 rev/d
Perigee alt
482.2 km
Apogee alt
483.9 km
Semi-major
6,861.2 km
B*
2.9339e-4
RAAN
18.5246°
Arg perigee
273.3736°
Mean anomaly
86.6967°
Rev number
4,457

§ Raw data

STARLINK-361431 67056U 25294AC  26263.36413322  .00007820  00000+0  29339-3 0  99942 67056  43.0020  18.5246 0001293 273.3736  86.6967 15.27582180 44578

JSON: /api/v1/satellites/67056 · /tle

For live sub-satellite position, see the globe view (requires WebGL).

§ Visibility from observer

Set your observer location to see the next 7 days of passes ≥ 10°. The values pass through the URL so the page stays shareable.

No JS? Fill the form by hand. The geolocation button needs JavaScript.